Time,TemperatureF,DewpointF,PressureIn,WindDirection,WindDirectionDegrees,WindSpeedMPH,WindSpeedGustMPH,Humidity,HourlyPrecipIn,Conditions,Clouds,dailyrainin,SoftwareType,DateUTC
2013-03-09 00:03:00,31.0,30.0,-100.00,North,357,0.0,6.0,93,0.00,,,-99.99,,2013-03-09 05:03:00,
2013-03-09 00:12:00,31.0,30.0,-100.00,NNW,347,0.0,6.0,94,0.00,,,-99.99,,2013-03-09 05:12:00,
2013-03-09 00:22:00,30.0,30.0,-100.00,NNE,19,0.0,6.0,94,0.00,,,-99.99,,2013-03-09 05:22:00,
2013-03-09 00:32:00,29.0,28.0,-100.00,NE,43,0.0,6.0,94,0.00,,,-99.99,,2013-03-09 05:32:00,
2013-03-09 00:43:00,30.0,30.0,-100.00,NNE,29,0.0,6.0,94,0.00,,,-99.99,,2013-03-09 05:43:00,
2013-03-09 00:52:00,28.0,28.0,-100.00,NW,319,0.0,6.0,95,0.00,,,-99.99,,2013-03-09 05:52:00,
2013-03-09 01:02:00,29.0,28.0,-100.00,WNW,302,0.0,6.0,95,0.00,,,-99.99,,2013-03-09 06:02:00,
2013-03-09 01:11:00,29.0,28.0,-100.00,WNW,300,0.0,6.0,94,0.00,,,-99.99,,2013-03-09 06:11:00,
2013-03-09 01:22:00,28.0,28.0,-100.00,WNW,299,0.0,6.0,95,0.00,,,-99.99,,2013-03-09 06:22:00,
2013-03-09 01:32:00,28.0,28.0,-100.00,WNW,299,0.0,6.0,98,0.00,,,-99.99,,2013-03-09 06:32:00,
2013-03-09 01:42:00,28.0,28.0,-100.00,North,2,0.0,6.0,97,0.00,,,-99.99,,2013-03-09 06:42:00,
2013-03-09 01:51:00,29.0,28.0,-100.00,North,2,0.0,6.0,95,0.00,,,-99.99,,2013-03-09 06:51:00,
2013-03-09 02:21:00,28.0,28.0,-100.00,NNW,333,0.0,6.0,95,0.00,,,-99.99,,2013-03-09 07:21:00,
2013-03-09 02:32:00,27.0,27.0,-100.00,NNW,333,0.0,6.0,95,0.00,,,-99.99,,2013-03-09 07:32:00,
2013-03-09 02:42:00,28.0,28.0,-100.00,NNW,333,0.0,6.0,97,0.00,,,-99.99,,2013-03-09 07:42:00,
2013-03-09 02:52:00,27.0,27.0,-100.00,NNW,333,0.0,6.0,97,0.00,,,-99.99,,2013-03-09 07:52:00,
2013-03-09 03:11:00,27.0,27.0,-100.00,NW,323,0.0,6.0,97,0.00,,,-99.99,,2013-03-09 08:11:00,
2013-03-09 03:52:00,27.0,27.0,-100.00,North,7,0.0,6.0,97,0.00,,,-99.99,,2013-03-09 08:52:00,
2013-03-09 04:12:00,25.0,25.0,-100.00,NNW,331,0.0,6.0,97,0.00,,,-99.99,,2013-03-09 09:12:00,
2013-03-09 04:21:00,25.0,25.0,-100.00,North,1,0.0,6.0,98,0.00,,,-99.99,,2013-03-09 09:21:00,
2013-03-09 04:42:00,23.0,23.0,-100.00,NNW,337,0.0,6.0,97,0.00,,,-99.99,,2013-03-09 09:42:00,
2013-03-09 05:11:00,27.0,27.0,-100.00,NNW,337,0.0,6.0,98,0.00,,,-99.99,,2013-03-09 10:11:00,
2013-03-09 05:32:00,26.0,25.0,-100.00,North,11,1.0,6.0,97,0.00,,,-99.99,,2013-03-09 10:32:00,
2013-03-09 05:52:00,29.0,28.0,-100.00,NW,320,1.0,6.0,98,0.00,,,-99.99,,2013-03-09 10:52:00,
2013-03-09 06:01:00,28.0,28.0,-100.00,North,1,2.0,6.0,98,0.00,,,-99.99,,2013-03-09 11:01:00,
2013-03-09 07:42:00,25.0,25.0,-100.00,North,360,1.0,6.0,98,0.00,,,-99.99,,2013-03-09 12:42:00,
2013-03-09 08:11:00,25.0,25.0,-100.00,North,2,0.0,6.0,98,0.00,,,-99.99,,2013-03-09 13:11:00,
2013-03-09 08:32:00,30.0,30.0,-100.00,NNE,19,0.0,6.0,99,0.00,,,-99.99,,2013-03-09 13:32:00,
2013-03-09 08:42:00,28.0,28.0,-100.00,North,11,0.0,6.0,97,0.00,,,-99.99,,2013-03-09 13:42:00,
2013-03-09 08:52:00,29.0,28.0,-100.00,NNW,334,1.0,6.0,97,0.00,,,-99.99,,2013-03-09 13:52:00,
2013-03-09 09:11:00,30.0,30.0,-100.00,North,11,1.0,6.0,97,0.00,,,-99.99,,2013-03-09 14:11:00,
2013-03-09 09:22:00,30.0,30.0,-100.00,NNE,12,1.0,6.0,98,0.00,,,-99.99,,2013-03-09 14:22:00,
2013-03-09 09:32:00,31.0,30.0,-100.00,North,5,1.0,6.0,97,0.00,,,-99.99,,2013-03-09 14:32:00,
2013-03-09 09:42:00,32.0,32.0,-100.00,North,357,2.0,6.0,95,0.00,,,-99.99,,2013-03-09 14:42:00,
2013-03-09 09:52:00,32.0,32.0,-100.00,NNE,15,2.0,6.0,97,0.00,,,-99.99,,2013-03-09 14:52:00,
2013-03-09 10:02:00,33.0,32.0,-100.00,NNE,32,2.0,6.0,95,0.00,,,-99.99,,2013-03-09 15:02:00,
2013-03-09 10:12:00,32.0,32.0,-100.00,North,1,2.0,6.0,95,0.00,,,-99.99,,2013-03-09 15:12:00,
2013-03-09 10:22:00,35.0,32.0,-100.00,North,7,1.0,6.0,94,0.00,,,-99.99,,2013-03-09 15:22:00,
2013-03-09 10:32:00,36.0,32.0,-100.00,NNE,14,1.0,6.0,90,0.00,,,-99.99,,2013-03-09 15:32:00,
2013-03-09 10:42:00,38.0,32.0,-100.00,North,351,1.0,6.0,86,0.00,,,-99.99,,2013-03-09 15:42:00,
2013-03-09 10:52:00,38.0,32.0,-100.00,North,0,2.0,6.0,82,0.00,,,-99.99,,2013-03-09 15:52:00,
2013-03-09 11:01:00,38.0,32.0,-100.00,North,11,2.0,6.0,78,0.00,,,-99.99,,2013-03-09 16:01:00,
2013-03-09 11:11:00,39.0,32.0,-100.00,North,5,1.0,6.0,76,0.00,,,-99.99,,2013-03-09 16:11:00,
2013-03-09 11:22:00,39.0,32.0,-100.00,WNW,299,1.0,6.0,73,0.00,,,-99.99,,2013-03-09 16:22:00,
2013-03-09 11:32:00,40.0,32.0,-100.00,NW,326,1.0,6.0,72,0.00,,,-99.99,,2013-03-09 16:32:00,
2013-03-09 11:42:00,40.0,32.0,-100.00,NNE,28,1.0,6.0,71,0.00,,,-99.99,,2013-03-09 16:42:00,
2013-03-09 11:52:00,42.0,32.0,-100.00,NE,48,1.0,6.0,71,0.00,,,-99.99,,2013-03-09 16:52:00,
2013-03-09 12:01:00,44.0,32.0,-100.00,NNW,348,1.0,6.0,66,0.00,,,-99.99,,2013-03-09 17:01:00,
2013-03-09 12:11:00,42.0,30.0,-100.00,NE,35,2.0,6.0,62,0.00,,,-99.99,,2013-03-09 17:11:00,
2013-03-09 12:22:00,43.0,32.0,-100.00,WNW,297,2.0,6.0,63,0.00,,,-99.99,,2013-03-09 17:22:00,
2013-03-09 12:32:00,43.0,30.0,-100.00,NNE,22,2.0,6.0,59,0.00,,,-99.99,,2013-03-09 17:32:00,
2013-03-09 12:42:00,43.0,28.0,-100.00,WNW,289,3.0,6.0,56,0.00,,,-99.99,,2013-03-09 17:42:00,
2013-03-09 12:52:00,44.0,30.0,-100.00,ENE,64,2.0,6.0,55,0.00,,,-99.99,,2013-03-09 17:52:00,
2013-03-09 13:02:00,44.0,30.0,-100.00,NNW,343,3.0,6.0,56,0.00,,,-99.99,,2013-03-09 18:02:00,
2013-03-09 13:11:00,45.0,30.0,-100.00,WNW,282,2.0,6.0,53,0.00,,,-99.99,,2013-03-09 18:11:00,
2013-03-09 13:22:00,45.0,30.0,-100.00,North,360,2.0,6.0,53,0.00,,,-99.99,,2013-03-09 18:22:00,
2013-03-09 13:32:00,45.0,30.0,-100.00,WNW,296,2.0,6.0,54,0.00,,,-99.99,,2013-03-09 18:32:00,
2013-03-09 13:42:00,45.0,28.0,-100.00,NNW,333,4.0,6.0,51,0.00,,,-99.99,,2013-03-09 18:42:00,
2013-03-09 13:52:00,48.0,32.0,-100.00,North,360,2.0,6.0,54,0.00,,,-99.99,,2013-03-09 18:52:00,
2013-03-09 14:02:00,47.0,30.0,-100.00,SSW,208,2.0,6.0,51,0.00,,,-99.99,,2013-03-09 19:02:00,
2013-03-09 14:12:00,48.0,30.0,-100.00,NE,39,4.0,6.0,49,0.00,,,-99.99,,2013-03-09 19:12:00,
2013-03-09 14:22:00,47.0,30.0,-100.00,North,2,3.0,6.0,49,0.00,,,-99.99,,2013-03-09 19:22:00,
2013-03-09 14:32:00,49.0,30.0,-100.00,North,2,2.0,6.0,47,0.00,,,-99.99,,2013-03-09 19:32:00,
2013-03-09 14:42:00,49.0,30.0,-100.00,NW,306,3.0,6.0,47,0.00,,,-99.99,,2013-03-09 19:42:00,
2013-03-09 14:52:00,49.0,30.0,-100.00,NNE,15,4.0,6.0,47,0.00,,,-99.99,,2013-03-09 19:52:00,
2013-03-09 15:02:00,49.0,30.0,-100.00,North,1,5.0,6.0,46,0.00,,,-99.99,,2013-03-09 20:02:00,
2013-03-09 15:11:00,49.0,28.0,-100.00,NNW,345,4.0,6.0,44,0.00,,,-99.99,,2013-03-09 20:11:00,
2013-03-09 15:22:00,50.0,28.0,-100.00,North,11,5.0,6.0,40,0.00,,,-99.99,,2013-03-09 20:22:00,
2013-03-09 15:32:00,50.0,27.0,-100.00,North,350,6.0,8.0,37,0.00,,,-99.99,,2013-03-09 20:32:00,
2013-03-09 15:42:00,51.0,28.0,-100.00,NNW,340,4.0,8.0,42,0.00,,,-99.99,,2013-03-09 20:42:00,
2013-03-09 15:52:00,51.0,28.0,-100.00,North,7,4.0,8.0,41,0.00,,,-99.99,,2013-03-09 20:52:00,
2013-03-09 16:02:00,52.0,32.0,-100.00,NW,314,4.0,8.0,44,0.00,,,-99.99,,2013-03-09 21:02:00,
2013-03-09 16:12:00,51.0,30.0,-100.00,NNE,15,5.0,5.0,42,0.00,,,-99.99,,2013-03-09 21:12:00,
2013-03-09 16:22:00,51.0,30.0,-100.00,NNW,343,4.0,5.0,44,0.00,,,-99.99,,2013-03-09 21:22:00,
2013-03-09 16:32:00,51.0,30.0,-100.00,North,354,5.0,6.0,44,0.00,,,-99.99,,2013-03-09 21:32:00,
2013-03-09 16:42:00,51.0,28.0,-100.00,North,2,6.0,6.0,41,0.00,,,-99.99,,2013-03-09 21:42:00,
2013-03-09 16:52:00,51.0,30.0,-100.00,North,358,7.0,10.0,42,0.00,,,-99.99,,2013-03-09 21:52:00,
2013-03-09 17:01:00,52.0,28.0,-100.00,North,8,6.0,10.0,40,0.00,,,-99.99,,2013-03-09 22:01:00,
2013-03-09 17:11:00,52.0,30.0,-100.00,NE,39,4.0,10.0,41,0.00,,,-99.99,,2013-03-09 22:11:00,
2013-03-09 17:21:00,52.0,30.0,-100.00,NE,45,2.0,10.0,41,0.00,,,-99.99,,2013-03-09 22:21:00,
2013-03-09 17:32:00,51.0,30.0,-100.00,North,2,2.0,10.0,42,0.00,,,-99.99,,2013-03-09 22:32:00,
2013-03-09 17:42:00,51.0,28.0,-100.00,NNW,337,4.0,10.0,41,0.00,,,-99.99,,2013-03-09 22:42:00,
2013-03-09 17:51:00,51.0,30.0,-100.00,North,360,3.0,10.0,44,0.00,,,-99.99,,2013-03-09 22:51:00,
2013-03-09 18:01:00,50.0,30.0,-100.00,NNW,337,1.0,10.0,44,0.00,,,-99.99,,2013-03-09 23:01:00,
2013-03-09 18:11:00,52.0,32.0,-100.00,North,351,1.0,10.0,45,0.00,,,-99.99,,2013-03-09 23:11:00,
2013-03-09 18:21:00,50.0,34.0,-100.00,NW,314,0.0,10.0,54,0.00,,,-99.99,,2013-03-09 23:21:00,
2013-03-09 18:32:00,50.0,36.0,-100.00,NNW,334,0.0,10.0,59,0.00,,,-99.99,,2013-03-09 23:32:00,
2013-03-09 18:42:00,47.0,32.0,-100.00,North,4,0.0,10.0,60,0.00,,,-99.99,,2013-03-09 23:42:00,
2013-03-09 18:52:00,45.0,34.0,-100.00,WNW,303,0.0,10.0,69,0.00,,,-99.99,,2013-03-09 23:52:00,
2013-03-09 19:02:00,43.0,34.0,-100.00,North,11,0.0,10.0,71,0.00,,,-99.99,,2013-03-10 00:02:00,
2013-03-09 19:11:00,42.0,34.0,-100.00,NNE,12,0.0,10.0,75,0.00,,,-99.99,,2013-03-10 00:11:00,
2013-03-09 19:22:00,41.0,32.0,-100.00,NNW,347,0.0,10.0,76,0.00,,,-99.99,,2013-03-10 00:22:00,
2013-03-09 19:32:00,41.0,34.0,-100.00,North,1,0.0,10.0,77,0.00,,,-99.99,,2013-03-10 00:32:00,
2013-03-09 19:42:00,39.0,32.0,-100.00,NW,307,0.0,10.0,80,0.00,,,-99.99,,2013-03-10 00:42:00,
2013-03-09 19:52:00,37.0,32.0,-100.00,NNW,333,0.0,10.0,82,0.00,,,-99.99,,2013-03-10 00:52:00,
2013-03-09 20:01:00,38.0,32.0,-100.00,NNE,24,0.0,10.0,84,0.00,,,-99.99,,2013-03-10 01:01:00,
2013-03-09 20:11:00,37.0,32.0,-100.00,NNW,328,0.0,10.0,84,0.00,,,-99.99,,2013-03-10 01:11:00,
2013-03-09 20:21:00,38.0,32.0,-100.00,NE,42,0.0,10.0,85,0.00,,,-99.99,,2013-03-10 01:21:00,
2013-03-09 20:32:00,37.0,32.0,-100.00,NNW,333,0.0,10.0,85,0.00,,,-99.99,,2013-03-10 01:32:00,
2013-03-09 20:42:00,35.0,32.0,-100.00,North,357,0.0,10.0,88,0.00,,,-99.99,,2013-03-10 01:42:00,
2013-03-09 20:52:00,36.0,32.0,-100.00,North,357,1.0,10.0,88,0.00,,,-99.99,,2013-03-10 01:52:00,
2013-03-09 21:01:00,35.0,32.0,-100.00,NNE,12,1.0,10.0,89,0.00,,,-99.99,,2013-03-10 02:01:00,
2013-03-09 21:11:00,37.0,32.0,-100.00,North,358,2.0,10.0,88,0.00,,,-99.99,,2013-03-10 02:11:00,
2013-03-09 21:22:00,39.0,34.0,-100.00,North,358,2.0,10.0,82,0.00,,,-99.99,,2013-03-10 02:22:00,
2013-03-09 21:32:00,38.0,32.0,-100.00,North,358,1.0,10.0,73,0.00,,,-99.99,,2013-03-10 02:32:00,
2013-03-09 21:42:00,40.0,32.0,-100.00,North,9,2.0,10.0,69,0.00,,,-99.99,,2013-03-10 02:42:00,
2013-03-09 21:52:00,41.0,30.0,-100.00,NNW,345,1.0,10.0,62,0.00,,,-99.99,,2013-03-10 02:52:00,
2013-03-09 22:02:00,42.0,28.0,-100.00,NNW,338,2.0,10.0,55,0.00,,,-99.99,,2013-03-10 03:02:00,
2013-03-09 22:12:00,43.0,27.0,-100.00,North,2,2.0,10.0,51,0.00,,,-99.99,,2013-03-10 03:12:00,
2013-03-09 22:22:00,43.0,27.0,-100.00,North,2,2.0,10.0,51,0.00,,,-99.99,,2013-03-10 03:22:00,
2013-03-09 22:32:00,43.0,27.0,-100.00,North,2,2.0,10.0,51,0.00,,,-99.99,,2013-03-10 03:32:00,
2013-03-09 22:42:00,43.0,27.0,-100.00,North,2,2.0,10.0,51,0.00,,,-99.99,,2013-03-10 03:42:00,